Time,TemperatureF,DewpointF,PressureIn,WindDirection,WindDirectionDegrees,WindSpeedMPH,WindSpeedGustMPH,Humidity,HourlyPrecipIn,Conditions,Clouds,dailyrainin,SolarRadiationWatts/m^2,SoftwareType,DateUTC
2013-06-23 00:01:00,68.6,28.2,29.69,SW,233,0.0,0.0,22,0.00,,,0.00,0,Wunderground v.1.15,2013-06-23 07:01:00,
2013-06-23 00:07:00,68.4,28.0,29.69,SW,233,0.0,0.0,22,0.00,,,0.00,0,Wunderground v.1.15,2013-06-23 07:07:00,
2013-06-23 00:12:00,68.0,27.7,29.69,SW,233,0.0,0.0,22,0.00,,,0.00,0,Wunderground v.1.15,2013-06-23 07:12:00,
2013-06-23 00:17:00,67.6,27.4,29.69,SW,232,0.0,0.0,22,0.00,,,0.00,0,Wunderground v.1.15,2013-06-23 07:17:00,
2013-06-23 00:22:00,67.2,27.0,29.69,SW,233,0.0,0.0,22,0.00,,,0.00,0,Wunderground v.1.15,2013-06-23 07:22:00,
2013-06-23 00:28:00,66.8,27.8,29.68,SW,233,0.0,0.0,23,0.00,,,0.00,0,Wunderground v.1.15,2013-06-23 07:28:00,
2013-06-23 00:33:00,66.3,28.4,29.68,SW,233,0.0,0.0,24,0.00,,,0.00,0,Wunderground v.1.15,2013-06-23 07:33:00,
2013-06-23 00:38:00,66.0,28.1,29.68,SW,233,0.0,0.0,24,0.00,,,0.00,0,Wunderground v.1.15,2013-06-23 07:38:00,
2013-06-23 00:43:00,65.6,27.8,29.69,SW,233,0.0,0.0,24,0.00,,,0.00,0,Wunderground v.1.15,2013-06-23 07:43:00,
2013-06-23 00:48:00,65.2,27.5,29.69,SW,233,0.0,0.0,24,0.00,,,0.00,0,Wunderground v.1.15,2013-06-23 07:48:00,
2013-06-23 00:54:00,64.8,28.1,29.68,SW,233,0.0,0.0,25,0.00,,,0.00,0,Wunderground v.1.15,2013-06-23 07:54:00,
2013-06-23 00:59:00,64.5,27.9,29.68,SW,233,0.0,0.0,25,0.00,,,0.00,0,Wunderground v.1.15,2013-06-23 07:59:00,
2013-06-23 01:05:00,64.2,27.6,29.68,SW,233,0.0,0.0,25,0.00,,,0.00,0,Wunderground v.1.15,2013-06-23 08:05:00,
2013-06-23 01:11:00,64.0,27.4,29.68,SW,233,0.0,0.0,25,0.00,,,0.00,0,Wunderground v.1.15,2013-06-23 08:11:00,
2013-06-23 01:16:00,63.8,28.2,29.68,SW,233,0.0,0.0,26,0.00,,,0.00,0,Wunderground v.1.15,2013-06-23 08:16:00,
2013-06-23 01:21:00,63.6,27.1,29.69,SW,233,0.0,0.0,25,0.00,,,0.00,0,Wunderground v.1.15,2013-06-23 08:21:00,
2013-06-23 01:27:00,63.1,27.6,29.68,SW,233,0.0,0.0,26,0.00,,,0.00,0,Wunderground v.1.15,2013-06-23 08:27:00,
2013-06-23 01:32:00,62.8,27.4,29.69,SW,232,0.0,0.0,26,0.00,,,0.00,0,Wunderground v.1.15,2013-06-23 08:32:00,
2013-06-23 01:37:00,62.5,28.9,29.68,SW,233,0.0,0.0,28,0.00,,,0.00,0,Wunderground v.1.15,2013-06-23 08:37:00,
2013-06-23 01:42:00,62.5,28.0,29.69,SW,232,0.0,0.0,27,0.00,,,0.00,0,Wunderground v.1.15,2013-06-23 08:42:00,
2013-06-23 01:47:00,62.5,28.0,29.68,SW,233,0.0,0.0,27,0.00,,,0.00,0,Wunderground v.1.15,2013-06-23 08:47:00,
2013-06-23 01:52:00,62.6,28.1,29.68,SW,232,0.0,0.0,27,0.00,,,0.00,0,Wunderground v.1.15,2013-06-23 08:52:00,
2013-06-23 01:57:00,62.5,28.9,29.68,SW,233,0.0,0.0,28,0.00,,,0.00,0,Wunderground v.1.15,2013-06-23 08:57:00,
2013-06-23 02:02:00,62.4,28.8,29.69,SW,233,0.0,0.0,28,0.00,,,0.00,0,Wunderground v.1.15,2013-06-23 09:02:00,
2013-06-23 02:07:00,62.3,27.9,29.69,SW,233,0.0,0.0,27,0.00,,,0.00,0,Wunderground v.1.15,2013-06-23 09:07:00,
2013-06-23 02:12:00,62.2,27.8,29.69,SW,232,0.0,0.0,27,0.00,,,0.00,0,Wunderground v.1.15,2013-06-23 09:12:00,
2013-06-23 02:17:00,62.0,28.5,29.69,SW,232,0.0,0.0,28,0.00,,,0.00,0,Wunderground v.1.15,2013-06-23 09:17:00,
2013-06-23 02:22:00,61.6,27.3,29.68,SW,233,0.0,0.0,27,0.00,,,0.00,0,Wunderground v.1.15,2013-06-23 09:22:00,
2013-06-23 02:27:00,61.3,27.9,29.69,SW,232,0.0,0.0,28,0.00,,,0.00,0,Wunderground v.1.15,2013-06-23 09:27:00,
2013-06-23 02:32:00,60.9,28.4,29.69,SW,232,0.0,0.0,29,0.00,,,0.00,0,Wunderground v.1.15,2013-06-23 09:32:00,
2013-06-23 02:37:00,60.6,28.1,29.69,SW,233,0.0,0.0,29,0.00,,,0.00,0,Wunderground v.1.15,2013-06-23 09:37:00,
2013-06-23 02:42:00,60.3,29.5,29.69,SW,233,0.0,0.0,31,0.00,,,0.00,0,Wunderground v.1.15,2013-06-23 09:42:00,
2013-06-23 02:47:00,60.1,28.5,29.69,SW,232,0.0,0.0,30,0.00,,,0.00,0,Wunderground v.1.15,2013-06-23 09:47:00,
2013-06-23 02:52:00,60.1,29.3,29.69,SW,233,0.0,0.0,31,0.00,,,0.00,0,Wunderground v.1.15,2013-06-23 09:52:00,
2013-06-23 02:57:00,60.0,28.4,29.69,SW,233,0.0,0.0,30,0.00,,,0.00,0,Wunderground v.1.15,2013-06-23 09:57:00,
2013-06-23 03:02:00,59.9,29.2,29.69,SW,233,0.0,0.0,31,0.00,,,0.00,0,Wunderground v.1.15,2013-06-23 10:02:00,
2013-06-23 03:07:00,59.8,29.9,29.68,SW,232,0.0,0.0,32,0.00,,,0.00,0,Wunderground v.1.15,2013-06-23 10:07:00,
2013-06-23 03:12:00,60.0,31.5,29.68,SW,233,4.0,4.0,34,0.00,,,0.00,0,Wunderground v.1.15,2013-06-23 10:12:00,
2013-06-23 03:17:00,60.9,32.3,29.68,SW,233,0.0,6.0,34,0.00,,,0.00,0,Wunderground v.1.15,2013-06-23 10:17:00,
2013-06-23 03:22:00,62.3,32.8,29.68,SW,232,2.0,5.0,33,0.00,,,0.00,0,Wunderground v.1.15,2013-06-23 10:22:00,
2013-06-23 03:27:00,64.0,33.5,29.68,SW,232,3.0,10.0,32,0.00,,,0.00,0,Wunderground v.1.15,2013-06-23 10:27:00,
2013-06-23 03:32:00,65.1,33.7,29.69,SW,232,0.0,2.0,31,0.00,,,0.00,0,Wunderground v.1.15,2013-06-23 10:32:00,
2013-06-23 03:37:00,65.8,33.5,29.69,SW,232,0.0,3.0,30,0.00,,,0.00,0,Wunderground v.1.15,2013-06-23 10:37:00,
2013-06-23 03:42:00,66.3,33.9,29.69,SW,232,0.0,3.0,30,0.00,,,0.00,0,Wunderground v.1.15,2013-06-23 10:42:00,
2013-06-23 03:47:00,66.5,34.1,29.69,SW,232,0.0,3.0,30,0.00,,,0.00,0,Wunderground v.1.15,2013-06-23 10:47:00,
2013-06-23 03:52:00,66.7,34.3,29.69,SW,232,2.0,4.0,30,0.00,,,0.00,0,Wunderground v.1.15,2013-06-23 10:52:00,
2013-06-23 03:57:00,66.8,34.3,29.69,SW,230,1.0,6.0,30,0.00,,,0.00,0,Wunderground v.1.15,2013-06-23 10:57:00,
2013-06-23 04:02:00,67.0,34.5,29.69,SW,227,1.0,9.0,30,0.00,,,0.00,0,Wunderground v.1.15,2013-06-23 11:02:00,
2013-06-23 04:07:00,67.5,35.0,29.69,SW,216,3.0,10.0,30,0.00,,,0.00,0,Wunderground v.1.15,2013-06-23 11:07:00,
2013-06-23 04:12:00,68.1,34.6,29.69,SSW,198,7.0,10.0,29,0.00,,,0.00,0,Wunderground v.1.15,2013-06-23 11:12:00,
2013-06-23 04:17:00,68.6,35.1,29.69,South,189,4.0,13.0,29,0.00,,,0.00,0,Wunderground v.1.15,2013-06-23 11:17:00,
2013-06-23 04:22:00,68.9,34.4,29.69,South,187,10.0,10.0,28,0.00,,,0.00,0,Wunderground v.1.15,2013-06-23 11:22:00,
2013-06-23 04:27:00,69.2,34.7,29.68,South,187,5.0,10.0,28,0.00,,,0.00,0,Wunderground v.1.15,2013-06-23 11:27:00,
2013-06-23 04:32:00,69.4,34.9,29.69,South,187,5.0,9.0,28,0.00,,,0.00,0,Wunderground v.1.15,2013-06-23 11:32:00,
2013-06-23 04:37:00,69.6,34.1,29.69,South,185,7.0,11.0,27,0.00,,,0.00,0,Wunderground v.1.15,2013-06-23 11:37:00,
2013-06-23 04:42:00,69.6,34.1,29.69,South,185,4.0,8.0,27,0.00,,,0.00,0,Wunderground v.1.15,2013-06-23 11:42:00,
2013-06-23 04:47:00,69.4,33.9,29.69,South,185,6.0,11.0,27,0.00,,,0.00,0,Wunderground v.1.15,2013-06-23 11:47:00,
2013-06-23 04:52:00,69.4,33.9,29.69,South,185,8.0,9.0,27,0.00,,,0.00,0,Wunderground v.1.15,2013-06-23 11:52:00,
2013-06-23 04:57:00,69.3,33.9,29.69,South,183,5.0,9.0,27,0.00,,,0.00,0,Wunderground v.1.15,2013-06-23 11:57:00,
2013-06-23 05:02:00,69.2,34.7,29.70,South,185,8.0,9.0,28,0.00,,,0.00,0,Wunderground v.1.15,2013-06-23 12:02:00,
2013-06-23 05:07:00,69.1,34.6,29.70,South,183,4.0,9.0,28,0.00,,,0.00,0,Wunderground v.1.15,2013-06-23 12:07:00,
2013-06-23 05:12:00,69.0,34.5,29.70,South,180,2.0,10.0,28,0.00,,,0.00,0,Wunderground v.1.15,2013-06-23 12:12:00,
2013-06-23 05:17:00,69.0,33.6,29.70,South,181,2.0,10.0,27,0.00,,,0.00,0,Wunderground v.1.15,2013-06-23 12:17:00,
2013-06-23 05:22:00,69.0,33.6,29.70,South,181,5.0,9.0,27,0.00,,,0.00,7,Wunderground v.1.15,2013-06-23 12:22:00,
2013-06-23 05:27:00,69.0,33.6,29.70,South,183,5.0,11.0,27,0.00,,,0.00,9,Wunderground v.1.15,2013-06-23 12:27:00,
2013-06-23 05:32:00,69.1,33.7,29.70,South,183,5.0,9.0,27,0.00,,,0.00,12,Wunderground v.1.15,2013-06-23 12:32:00,
2013-06-23 05:37:00,69.0,34.5,29.70,South,181,8.0,9.0,28,0.00,,,0.00,14,Wunderground v.1.15,2013-06-23 12:37:00,
2013-06-23 05:42:00,68.8,34.3,29.70,South,180,1.0,10.0,28,0.00,,,0.00,16,Wunderground v.1.15,2013-06-23 12:42:00,
2013-06-23 05:47:00,68.5,34.1,29.70,South,180,4.0,10.0,28,0.00,,,0.00,21,Wunderground v.1.15,2013-06-23 12:47:00,
2013-06-23 05:52:00,68.5,35.0,29.71,South,180,0.0,6.0,29,0.00,,,0.00,37,Wunderground v.1.15,2013-06-23 12:52:00,
2013-06-23 05:57:00,68.4,34.9,29.71,South,180,0.0,8.0,29,0.00,,,0.00,49,Wunderground v.1.15,2013-06-23 12:57:00,
2013-06-23 06:02:00,68.6,34.2,29.70,South,180,2.0,8.0,28,0.00,,,0.00,65,Wunderground v.1.15,2013-06-23 13:02:00,
2013-06-23 06:08:00,69.0,34.5,29.70,South,183,4.0,10.0,28,0.00,,,0.00,81,Wunderground v.1.15,2013-06-23 13:08:00,
2013-06-23 06:13:00,69.5,34.9,29.70,South,187,7.0,11.0,28,0.00,,,0.00,98,Wunderground v.1.15,2013-06-23 13:13:00,
2013-06-23 06:18:00,70.1,34.5,29.71,South,189,7.0,12.0,27,0.00,,,0.00,118,Wunderground v.1.15,2013-06-23 13:18:00,
2013-06-23 06:23:00,70.3,34.7,29.71,South,185,7.0,11.0,27,0.00,,,0.00,139,Wunderground v.1.15,2013-06-23 13:23:00,
2013-06-23 06:28:00,70.6,35.0,29.71,South,187,3.0,11.0,27,0.00,,,0.00,160,Wunderground v.1.15,2013-06-23 13:28:00,
2013-06-23 06:33:00,71.0,35.3,29.71,South,185,8.0,9.0,27,0.00,,,0.00,181,Wunderground v.1.15,2013-06-23 13:33:00,
2013-06-23 06:38:00,71.6,35.8,29.71,South,188,9.0,12.0,27,0.00,,,0.00,202,Wunderground v.1.15,2013-06-23 13:38:00,
2013-06-23 06:43:00,72.1,36.3,29.71,South,183,6.0,11.0,27,0.00,,,0.00,221,Wunderground v.1.15,2013-06-23 13:43:00,
2013-06-23 06:48:00,72.7,36.8,29.71,South,185,6.0,12.0,27,0.00,,,0.00,239,Wunderground v.1.15,2013-06-23 13:48:00,
2013-06-23 06:53:00,73.3,37.3,29.71,SSW,195,5.0,14.0,27,0.00,,,0.00,262,Wunderground v.1.15,2013-06-23 13:53:00,
2013-06-23 06:58:00,73.9,37.8,29.71,South,177,8.0,14.0,27,0.00,,,0.00,278,Wunderground v.1.15,2013-06-23 13:58:00,
2013-06-23 07:04:00,74.4,37.3,29.72,SSW,195,10.0,12.0,26,0.00,,,0.00,299,Wunderground v.1.15,2013-06-23 14:04:00,
2013-06-23 07:09:00,75.0,37.8,29.71,SSW,193,11.0,16.0,26,0.00,,,0.00,316,Wunderground v.1.15,2013-06-23 14:09:00,
2013-06-23 07:14:00,75.5,39.2,29.72,South,180,9.0,17.0,27,0.00,,,0.00,336,Wunderground v.1.15,2013-06-23 14:14:00,
2013-06-23 07:19:00,76.0,39.6,29.72,SSW,193,9.0,17.0,27,0.00,,,0.00,353,Wunderground v.1.15,2013-06-23 14:19:00,
2013-06-23 07:24:00,76.5,39.0,29.72,South,183,14.0,14.0,26,0.00,,,0.00,367,Wunderground v.1.15,2013-06-23 14:24:00,
2013-06-23 07:29:00,76.7,39.2,29.72,SSW,192,11.0,16.0,26,0.00,,,0.00,387,Wunderground v.1.15,2013-06-23 14:29:00,
2013-06-23 07:34:00,76.9,40.4,29.72,SSW,199,9.0,15.0,27,0.00,,,0.00,404,Wunderground v.1.15,2013-06-23 14:34:00,
2013-06-23 07:39:00,77.0,40.4,29.72,South,184,9.0,18.0,27,0.00,,,0.00,422,Wunderground v.1.15,2013-06-23 14:39:00,
2013-06-23 07:44:00,77.3,39.7,29.72,South,190,7.0,16.0,26,0.00,,,0.00,441,Wunderground v.1.15,2013-06-23 14:44:00,
2013-06-23 07:49:00,77.8,39.1,29.72,South,190,6.0,16.0,25,0.00,,,0.00,459,Wunderground v.1.15,2013-06-23 14:49:00,
2013-06-23 07:54:00,78.3,39.6,29.72,South,178,10.0,15.0,25,0.00,,,0.00,478,Wunderground v.1.15,2013-06-23 14:54:00,
2013-06-23 07:59:00,78.7,38.9,29.72,South,178,11.0,16.0,24,0.00,,,0.00,496,Wunderground v.1.15,2013-06-23 14:59:00,
2013-06-23 08:04:00,79.1,37.0,29.72,SSE,164,14.0,16.0,22,0.00,,,0.00,510,Wunderground v.1.15,2013-06-23 15:04:00,
2013-06-23 08:09:00,79.5,38.4,29.72,South,176,5.0,19.0,23,0.00,,,0.00,529,Wunderground v.1.15,2013-06-23 15:09:00,
2013-06-23 08:14:00,79.8,37.6,29.72,South,177,10.0,17.0,22,0.00,,,0.00,545,Wunderground v.1.15,2013-06-23 15:14:00,
2013-06-23 08:19:00,80.0,38.9,29.72,South,180,8.0,17.0,23,0.00,,,0.00,563,Wunderground v.1.15,2013-06-23 15:19:00,
2013-06-23 08:24:00,80.3,39.1,29.72,South,179,9.0,18.0,23,0.00,,,0.00,580,Wunderground v.1.15,2013-06-23 15:24:00,
2013-06-23 08:29:00,80.5,39.3,29.72,South,177,10.0,18.0,23,0.00,,,0.00,596,Wunderground v.1.15,2013-06-23 15:29:00,
2013-06-23 08:34:00,80.9,39.6,29.72,South,185,8.0,14.0,23,0.00,,,0.00,615,Wunderground v.1.15,2013-06-23 15:34:00,
2013-06-23 08:39:00,81.2,38.7,29.72,SSE,168,10.0,21.0,22,0.00,,,0.00,631,Wunderground v.1.15,2013-06-23 15:39:00,
2013-06-23 08:44:00,81.6,37.9,29.72,South,176,7.0,20.0,21,0.00,,,0.00,643,Wunderground v.1.15,2013-06-23 15:44:00,
2013-06-23 08:49:00,81.9,38.1,29.72,SE,135,11.0,20.0,21,0.00,,,0.00,664,Wunderground v.1.15,2013-06-23 15:49:00,
2013-06-23 08:54:00,82.2,38.4,29.71,South,175,20.0,20.0,21,0.00,,,0.00,680,Wunderground v.1.15,2013-06-23 15:54:00,
2013-06-23 08:59:00,82.4,37.3,29.71,South,188,13.0,20.0,20,0.00,,,0.00,693,Wunderground v.1.15,2013-06-23 15:59:00,
2013-06-23 09:04:00,82.9,38.9,29.71,South,173,9.0,14.0,21,0.00,,,0.00,705,Wunderground v.1.15,2013-06-23 16:04:00,
2013-06-23 09:09:00,83.1,39.1,29.71,South,172,8.0,16.0,21,0.00,,,0.00,721,Wunderground v.1.15,2013-06-23 16:09:00,
2013-06-23 09:14:00,83.8,38.4,29.71,SSE,165,15.0,15.0,20,0.00,,,0.00,737,Wunderground v.1.15,2013-06-23 16:14:00,
2013-06-23 09:19:00,84.2,37.5,29.71,South,178,9.0,18.0,19,0.00,,,0.00,754,Wunderground v.1.15,2013-06-23 16:19:00,
2013-06-23 09:24:00,84.8,39.3,29.71,SSW,192,7.0,15.0,20,0.00,,,0.00,766,Wunderground v.1.15,2013-06-23 16:24:00,
2013-06-23 09:29:00,85.6,38.6,29.71,SSE,166,13.0,15.0,19,0.00,,,0.00,782,Wunderground v.1.15,2013-06-23 16:29:00,
2013-06-23 09:35:00,85.8,37.4,29.71,SSW,197,3.0,12.0,18,0.00,,,0.00,795,Wunderground v.1.15,2013-06-23 16:35:00,
2013-06-23 09:40:00,86.6,38.0,29.71,South,174,10.0,10.0,18,0.00,,,0.00,810,Wunderground v.1.15,2013-06-23 16:40:00,
2013-06-23 09:45:00,87.1,38.4,29.71,SSE,167,5.0,13.0,18,0.00,,,0.00,817,Wunderground v.1.15,2013-06-23 16:45:00,
2013-06-23 09:50:00,87.2,33.9,29.71,SSW,199,10.0,10.0,15,0.00,,,0.00,835,Wunderground v.1.15,2013-06-23 16:50:00,
2013-06-23 09:55:00,87.6,35.9,29.70,SSW,197,7.0,15.0,16,0.00,,,0.00,846,Wunderground v.1.15,2013-06-23 16:55:00,
2013-06-23 09:57:00,87.8,34.4,29.70,South,176,15.0,16.0,15,0.00,,,0.00,856,Wunderground v.1.15,2013-06-23 16:57:00,
2013-06-23 09:58:00,87.8,32.7,29.70,South,189,6.0,16.0,14,0.00,,,0.00,856,Wunderground v.1.15,2013-06-23 16:58:00,
2013-06-23 10:03:00,88.2,33.0,29.70,South,183,6.0,12.0,14,0.00,,,0.00,868,Wunderground v.1.15,2013-06-23 17:03:00,
2013-06-23 10:08:00,88.6,33.3,29.70,South,173,1.0,16.0,14,0.00,,,0.00,879,Wunderground v.1.15,2013-06-23 17:08:00,
2013-06-23 10:13:00,89.0,31.8,29.70,South,183,8.0,15.0,13,0.00,,,0.00,888,Wunderground v.1.15,2013-06-23 17:13:00,
2013-06-23 10:18:00,89.2,33.8,29.70,South,179,6.0,15.0,14,0.00,,,0.00,898,Wunderground v.1.15,2013-06-23 17:18:00,
2013-06-23 10:24:00,89.6,32.2,29.70,SW,235,13.0,15.0,13,0.00,,,0.00,914,Wunderground v.1.15,2013-06-23 17:24:00,
2013-06-23 10:29:00,89.9,32.5,29.70,South,183,9.0,17.0,13,0.00,,,0.00,925,Wunderground v.1.15,2013-06-23 17:29:00,
2013-06-23 10:34:00,90.4,32.9,29.70,South,185,6.0,17.0,13,0.00,,,0.00,935,Wunderground v.1.15,2013-06-23 17:34:00,
2013-06-23 10:39:00,91.0,33.3,29.70,South,171,3.0,17.0,13,0.00,,,0.00,944,Wunderground v.1.15,2013-06-23 17:39:00,
2013-06-23 10:44:00,91.1,31.4,29.70,SSW,207,1.0,19.0,12,0.00,,,0.00,947,Wunderground v.1.15,2013-06-23 17:44:00,
2013-06-23 10:49:00,91.4,33.6,29.70,SSW,210,2.0,19.0,13,0.00,,,0.00,954,Wunderground v.1.15,2013-06-23 17:49:00,
2013-06-23 10:54:00,91.7,31.9,29.69,SW,217,4.0,13.0,12,0.00,,,0.00,965,Wunderground v.1.15,2013-06-23 17:54:00,
2013-06-23 10:59:00,92.1,32.2,29.69,South,187,2.0,13.0,12,0.00,,,0.00,972,Wunderground v.1.15,2013-06-23 17:59:00,
2013-06-23 11:04:00,92.5,32.5,29.69,South,185,0.0,4.0,12,0.00,,,0.00,974,Wunderground v.1.15,2013-06-23 18:04:00,
2013-06-23 11:09:00,93.1,35.0,29.69,West,260,12.0,18.0,13,0.00,,,0.00,986,Wunderground v.1.15,2013-06-23 18:09:00,
2013-06-23 11:14:00,93.2,33.0,29.69,SW,224,10.0,16.0,12,0.00,,,0.00,990,Wunderground v.1.15,2013-06-23 18:14:00,
2013-06-23 11:19:00,92.9,34.8,29.69,SW,233,9.0,19.0,13,0.00,,,0.00,997,Wunderground v.1.15,2013-06-23 18:19:00,
2013-06-23 11:24:00,92.9,34.8,29.68,SW,231,6.0,18.0,13,0.00,,,0.00,1000,Wunderground v.1.15,2013-06-23 18:24:00,
2013-06-23 11:29:00,93.0,34.9,29.68,WSW,253,13.0,20.0,13,0.00,,,0.00,1000,Wunderground v.1.15,2013-06-23 18:29:00,
2013-06-23 11:34:00,92.9,34.8,29.69,WSW,247,8.0,20.0,13,0.00,,,0.00,1005,Wunderground v.1.15,2013-06-23 18:34:00,
2013-06-23 11:39:00,92.9,34.8,29.68,SW,231,14.0,20.0,13,0.00,,,0.00,1009,Wunderground v.1.15,2013-06-23 18:39:00,
2013-06-23 11:44:00,93.0,34.9,29.68,SSW,210,8.0,15.0,13,0.00,,,0.00,1016,Wunderground v.1.15,2013-06-23 18:44:00,
2013-06-23 11:49:00,93.2,35.0,29.68,SSE,168,8.0,16.0,13,0.00,,,0.00,1021,Wunderground v.1.15,2013-06-23 18:49:00,
2013-06-23 11:54:00,93.5,35.3,29.67,WSW,246,8.0,18.0,13,0.00,,,0.00,1020,Wunderground v.1.15,2013-06-23 18:54:00,
2013-06-23 11:59:00,93.7,33.4,29.67,West,274,16.0,20.0,12,0.00,,,0.00,1023,Wunderground v.1.15,2013-06-23 18:59:00,
2013-06-23 12:04:00,93.8,33.5,29.67,SW,230,9.0,24.0,12,0.00,,,0.00,1021,Wunderground v.1.15,2013-06-23 19:04:00,
2013-06-23 12:09:00,93.7,35.4,29.67,SW,228,8.0,24.0,13,0.00,,,0.00,1020,Wunderground v.1.15,2013-06-23 19:09:00,
2013-06-23 12:14:00,93.8,35.5,29.67,SW,218,9.0,23.0,13,0.00,,,0.00,1021,Wunderground v.1.15,2013-06-23 19:14:00,
2013-06-23 12:19:00,94.2,35.8,29.66,SW,214,10.0,25.0,13,0.00,,,0.00,1016,Wunderground v.1.15,2013-06-23 19:19:00,
2013-06-23 12:24:00,94.5,36.1,29.66,SSW,208,14.0,21.0,13,0.00,,,0.00,1021,Wunderground v.1.15,2013-06-23 19:24:00,
2013-06-23 12:29:00,94.8,36.3,29.66,SW,215,9.0,21.0,13,0.00,,,0.00,1025,Wunderground v.1.15,2013-06-23 19:29:00,
2013-06-23 12:34:00,94.8,36.3,29.65,SW,230,17.0,22.0,13,0.00,,,0.00,1023,Wunderground v.1.15,2013-06-23 19:34:00,
2013-06-23 12:39:00,94.7,36.2,29.66,WSW,246,9.0,22.0,13,0.00,,,0.00,1025,Wunderground v.1.15,2013-06-23 19:39:00,
2013-06-23 12:44:00,94.4,36.0,29.66,SW,218,18.0,25.0,13,0.00,,,0.00,1014,Wunderground v.1.15,2013-06-23 19:44:00,
2013-06-23 12:49:00,94.6,36.1,29.65,South,185,14.0,25.0,13,0.00,,,0.00,1018,Wunderground v.1.15,2013-06-23 19:49:00,
2013-06-23 12:54:00,94.8,36.3,29.65,SW,224,12.0,22.0,13,0.00,,,0.00,1016,Wunderground v.1.15,2013-06-23 19:54:00,
2013-06-23 12:59:00,94.6,38.0,29.65,South,176,13.0,25.0,14,0.00,,,0.00,1014,Wunderground v.1.15,2013-06-23 19:59:00,
2013-06-23 13:04:00,94.9,38.3,29.65,SSW,192,12.0,23.0,14,0.00,,,0.00,1018,Wunderground v.1.15,2013-06-23 20:04:00,
2013-06-23 13:09:00,95.2,36.6,29.65,SW,221,13.0,26.0,13,0.00,,,0.00,1016,Wunderground v.1.15,2013-06-23 20:09:00,
2013-06-23 13:14:00,95.1,38.4,29.64,SSW,201,7.0,18.0,14,0.00,,,0.00,1011,Wunderground v.1.15,2013-06-23 20:14:00,
2013-06-23 13:19:00,95.3,36.7,29.64,SSW,207,9.0,18.0,13,0.00,,,0.00,1011,Wunderground v.1.15,2013-06-23 20:19:00,
2013-06-23 13:24:00,95.9,37.1,29.64,SSW,211,15.0,22.0,13,0.00,,,0.00,1005,Wunderground v.1.15,2013-06-23 20:24:00,
2013-06-23 13:29:00,95.8,37.1,29.64,South,177,20.0,24.0,13,0.00,,,0.00,993,Wunderground v.1.15,2013-06-23 20:29:00,
2013-06-23 13:34:00,95.9,37.1,29.64,WSW,253,10.0,26.0,13,0.00,,,0.00,990,Wunderground v.1.15,2013-06-23 20:34:00,
2013-06-23 13:39:00,96.2,37.4,29.64,SSW,199,10.0,26.0,13,0.00,,,0.00,984,Wunderground v.1.15,2013-06-23 20:39:00,
2013-06-23 13:44:00,96.3,37.5,29.64,WSW,239,11.0,19.0,13,0.00,,,0.00,977,Wunderground v.1.15,2013-06-23 20:44:00,
2013-06-23 13:49:00,96.2,37.4,29.64,SSW,212,7.0,19.0,13,0.00,,,0.00,969,Wunderground v.1.15,2013-06-23 20:49:00,
2013-06-23 13:54:00,96.4,37.5,29.63,SSW,199,9.0,17.0,13,0.00,,,0.00,967,Wunderground v.1.15,2013-06-23 20:54:00,
2013-06-23 13:59:00,96.4,37.5,29.63,SSW,206,14.0,18.0,13,0.00,,,0.00,958,Wunderground v.1.15,2013-06-23 20:59:00,
2013-06-23 14:04:00,95.9,37.1,29.64,SW,216,21.0,28.0,13,0.00,,,0.00,947,Wunderground v.1.15,2013-06-23 21:04:00,
2013-06-23 14:09:00,95.7,37.0,29.64,SSW,212,15.0,30.0,13,0.00,,,0.00,942,Wunderground v.1.15,2013-06-23 21:09:00,
2013-06-23 14:14:00,95.6,36.9,29.64,SSW,203,19.0,21.0,13,0.00,,,0.00,940,Wunderground v.1.15,2013-06-23 21:14:00,
2013-06-23 14:19:00,95.5,36.8,29.64,SW,227,12.0,23.0,13,0.00,,,0.00,933,Wunderground v.1.15,2013-06-23 21:19:00,
2013-06-23 14:24:00,95.7,35.0,29.63,SW,227,16.0,18.0,12,0.00,,,0.00,932,Wunderground v.1.15,2013-06-23 21:24:00,
2013-06-23 14:29:00,95.7,35.0,29.63,SSW,196,13.0,29.0,12,0.00,,,0.00,835,Wunderground v.1.15,2013-06-23 21:29:00,
2013-06-23 14:34:00,95.7,35.0,29.63,SSW,205,10.0,21.0,12,0.00,,,0.00,926,Wunderground v.1.15,2013-06-23 21:34:00,
2013-06-23 14:39:00,95.6,34.9,29.63,SW,214,11.0,26.0,12,0.00,,,0.00,872,Wunderground v.1.15,2013-06-23 21:39:00,
2013-06-23 14:44:00,96.0,35.2,29.63,SW,219,13.0,19.0,12,0.00,,,0.00,842,Wunderground v.1.15,2013-06-23 21:44:00,
2013-06-23 14:49:00,96.0,35.2,29.62,SSW,210,20.0,26.0,12,0.00,,,0.00,870,Wunderground v.1.15,2013-06-23 21:49:00,
2013-06-23 14:54:00,95.7,37.0,29.63,SW,216,19.0,26.0,13,0.00,,,0.00,863,Wunderground v.1.15,2013-06-23 21:54:00,
2013-06-23 14:59:00,95.8,35.0,29.62,SW,215,11.0,26.0,12,0.00,,,0.00,854,Wunderground v.1.15,2013-06-23 21:59:00,
2013-06-23 15:04:00,95.8,35.0,29.62,SSW,201,14.0,20.0,12,0.00,,,0.00,838,Wunderground v.1.15,2013-06-23 22:04:00,
2013-06-23 15:09:00,95.8,35.0,29.62,South,187,10.0,21.0,12,0.00,,,0.00,800,Wunderground v.1.15,2013-06-23 22:09:00,
2013-06-23 15:14:00,95.7,35.0,29.62,South,178,14.0,20.0,12,0.00,,,0.00,835,Wunderground v.1.15,2013-06-23 22:14:00,
2013-06-23 15:19:00,96.0,37.2,29.61,SSW,206,10.0,20.0,13,0.00,,,0.00,817,Wunderground v.1.15,2013-06-23 22:19:00,
2013-06-23 15:24:00,95.9,37.1,29.61,SW,228,13.0,22.0,13,0.00,,,0.00,696,Wunderground v.1.15,2013-06-23 22:24:00,
2013-06-23 15:29:00,95.4,36.8,29.61,SW,217,14.0,23.0,13,0.00,,,0.00,735,Wunderground v.1.15,2013-06-23 22:29:00,
2013-06-23 15:34:00,95.3,36.7,29.61,SSW,210,14.0,20.0,13,0.00,,,0.00,758,Wunderground v.1.15,2013-06-23 22:34:00,
2013-06-23 15:39:00,95.2,36.6,29.61,SSW,206,7.0,24.0,13,0.00,,,0.00,738,Wunderground v.1.15,2013-06-23 22:39:00,
2013-06-23 15:44:00,95.3,36.7,29.61,South,187,18.0,21.0,13,0.00,,,0.00,675,Wunderground v.1.15,2013-06-23 22:44:00,
2013-06-23 15:49:00,95.4,36.8,29.61,SW,230,8.0,21.0,13,0.00,,,0.00,708,Wunderground v.1.15,2013-06-23 22:49:00,
2013-06-23 15:54:00,95.6,36.9,29.61,SW,216,13.0,17.0,13,0.00,,,0.00,691,Wunderground v.1.15,2013-06-23 22:54:00,
2013-06-23 15:59:00,95.4,36.8,29.60,SSW,195,13.0,19.0,13,0.00,,,0.00,675,Wunderground v.1.15,2013-06-23 22:59:00,
2013-06-23 16:04:00,95.1,36.5,29.60,SW,223,14.0,22.0,13,0.00,,,0.00,656,Wunderground v.1.15,2013-06-23 23:04:00,
2013-06-23 16:09:00,94.8,36.3,29.60,SSW,200,6.0,24.0,13,0.00,,,0.00,645,Wunderground v.1.15,2013-06-23 23:09:00,
2013-06-23 16:14:00,94.4,37.9,29.60,SW,220,15.0,21.0,14,0.00,,,0.00,621,Wunderground v.1.15,2013-06-23 23:14:00,
2013-06-23 16:19:00,94.1,37.6,29.60,SSW,209,12.0,22.0,14,0.00,,,0.00,608,Wunderground v.1.15,2013-06-23 23:19:00,
2013-06-23 16:24:00,93.8,37.4,29.60,SW,215,12.0,22.0,14,0.00,,,0.00,596,Wunderground v.1.15,2013-06-23 23:24:00,
2013-06-23 16:29:00,93.9,37.5,29.60,SW,232,15.0,22.0,14,0.00,,,0.00,570,Wunderground v.1.15,2013-06-23 23:29:00,
2013-06-23 16:34:00,93.9,37.5,29.60,SW,225,11.0,19.0,14,0.00,,,0.00,563,Wunderground v.1.15,2013-06-23 23:34:00,
2013-06-23 16:39:00,93.8,39.2,29.60,WSW,251,9.0,21.0,15,0.00,,,0.00,540,Wunderground v.1.15,2013-06-23 23:39:00,
2013-06-23 16:44:00,94.0,37.5,29.59,WSW,251,7.0,15.0,14,0.00,,,0.00,520,Wunderground v.1.15,2013-06-23 23:44:00,
2013-06-23 16:49:00,94.1,37.6,29.59,WSW,245,3.0,15.0,14,0.00,,,0.00,508,Wunderground v.1.15,2013-06-23 23:49:00,
2013-06-23 16:54:00,94.2,37.7,29.59,SW,226,9.0,14.0,14,0.00,,,0.00,490,Wunderground v.1.15,2013-06-23 23:54:00,
2013-06-23 16:59:00,94.0,39.3,29.59,WSW,238,6.0,21.0,15,0.00,,,0.00,473,Wunderground v.1.15,2013-06-23 23:59:00,
2013-06-23 17:04:00,93.7,39.1,29.59,WSW,237,11.0,19.0,15,0.00,,,0.00,454,Wunderground v.1.15,2013-06-24 00:04:00,
2013-06-23 17:09:00,93.3,38.8,29.59,SW,232,9.0,19.0,15,0.00,,,0.00,443,Wunderground v.1.15,2013-06-24 00:09:00,
2013-06-23 17:14:00,93.1,38.6,29.59,SW,218,14.0,19.0,15,0.00,,,0.00,422,Wunderground v.1.15,2013-06-24 00:14:00,
2013-06-23 17:19:00,93.0,38.5,29.59,SW,234,8.0,19.0,15,0.00,,,0.00,403,Wunderground v.1.15,2013-06-24 00:19:00,
2013-06-23 17:24:00,92.8,38.4,29.59,SSW,201,8.0,15.0,15,0.00,,,0.00,383,Wunderground v.1.15,2013-06-24 00:24:00,
2013-06-23 17:29:00,92.7,39.9,29.59,South,178,9.0,15.0,16,0.00,,,0.00,364,Wunderground v.1.15,2013-06-24 00:29:00,
2013-06-23 17:34:00,92.7,38.3,29.59,SW,214,9.0,16.0,15,0.00,,,0.00,348,Wunderground v.1.15,2013-06-24 00:34:00,
2013-06-23 17:39:00,92.5,38.1,29.59,SW,216,11.0,18.0,15,0.00,,,0.00,329,Wunderground v.1.15,2013-06-24 00:39:00,
2013-06-23 17:44:00,92.1,39.5,29.59,SSW,213,12.0,21.0,16,0.00,,,0.00,299,Wunderground v.1.15,2013-06-24 00:44:00,
2013-06-23 17:49:00,91.8,39.2,29.59,SSW,199,10.0,21.0,16,0.00,,,0.00,279,Wunderground v.1.15,2013-06-24 00:49:00,
2013-06-23 17:54:00,91.6,39.1,29.59,South,187,4.0,10.0,16,0.00,,,0.00,287,Wunderground v.1.15,2013-06-24 00:54:00,
2013-06-23 17:59:00,91.5,39.0,29.59,SW,228,6.0,13.0,16,0.00,,,0.00,251,Wunderground v.1.15,2013-06-24 00:59:00,
2013-06-23 18:04:00,91.4,38.9,29.59,SW,220,10.0,14.0,16,0.00,,,0.00,216,Wunderground v.1.15,2013-06-24 01:04:00,
2013-06-23 18:09:00,91.2,38.7,29.59,SSW,209,5.0,16.0,16,0.00,,,0.00,190,Wunderground v.1.15,2013-06-24 01:09:00,
2013-06-23 18:14:00,90.8,38.4,29.59,WSW,251,3.0,15.0,16,0.00,,,0.00,69,Wunderground v.1.15,2013-06-24 01:14:00,
2013-06-23 18:19:00,90.4,38.1,29.59,WSW,251,3.0,15.0,16,0.00,,,0.00,63,Wunderground v.1.15,2013-06-24 01:19:00,
2013-06-23 18:24:00,90.0,37.8,29.59,SW,227,5.0,10.0,16,0.00,,,0.00,53,Wunderground v.1.15,2013-06-24 01:24:00,
2013-06-23 18:29:00,89.5,37.4,29.59,SSW,212,7.0,12.0,16,0.00,,,0.00,56,Wunderground v.1.15,2013-06-24 01:29:00,
2013-06-23 18:34:00,89.0,37.0,29.60,SW,222,11.0,16.0,16,0.00,,,0.00,70,Wunderground v.1.15,2013-06-24 01:34:00,
2013-06-23 18:39:00,88.8,36.8,29.60,SW,228,5.0,16.0,16,0.00,,,0.00,49,Wunderground v.1.15,2013-06-24 01:39:00,
2013-06-23 18:44:00,88.5,36.6,29.60,SW,225,4.0,10.0,16,0.00,,,0.00,35,Wunderground v.1.15,2013-06-24 01:44:00,
2013-06-23 18:49:00,88.2,37.9,29.60,SSW,203,8.0,12.0,17,0.00,,,0.00,33,Wunderground v.1.15,2013-06-24 01:49:00,
2013-06-23 18:54:00,87.9,37.6,29.60,WSW,243,10.0,12.0,17,0.00,,,0.00,26,Wunderground v.1.15,2013-06-24 01:54:00,
2013-06-23 18:59:00,87.5,37.3,29.60,SW,231,3.0,12.0,17,0.00,,,0.00,26,Wunderground v.1.15,2013-06-24 01:59:00,
2013-06-23 19:04:00,87.3,37.1,29.60,SW,224,7.0,10.0,17,0.00,,,0.00,23,Wunderground v.1.15,2013-06-24 02:04:00,
2013-06-23 19:09:00,87.1,37.0,29.60,SW,224,2.0,10.0,17,0.00,,,0.00,12,Wunderground v.1.15,2013-06-24 02:09:00,
2013-06-23 19:14:00,86.8,36.7,29.60,SW,223,0.0,7.0,17,0.00,,,0.00,9,Wunderground v.1.15,2013-06-24 02:14:00,
2013-06-23 19:19:00,86.5,38.0,29.61,SW,223,0.0,7.0,18,0.00,,,0.00,7,Wunderground v.1.15,2013-06-24 02:19:00,
2013-06-23 19:24:00,86.1,37.6,29.61,SW,218,5.0,8.0,18,0.00,,,0.00,0,Wunderground v.1.15,2013-06-24 02:24:00,
2013-06-23 19:29:00,85.7,37.3,29.61,SW,218,2.0,8.0,18,0.00,,,0.00,0,Wunderground v.1.15,2013-06-24 02:29:00,
2013-06-23 19:34:00,85.4,37.1,29.60,SW,216,1.0,9.0,18,0.00,,,0.00,0,Wunderground v.1.15,2013-06-24 02:34:00,
2013-06-23 19:39:00,85.1,38.2,29.60,SW,216,1.0,9.0,19,0.00,,,0.00,0,Wunderground v.1.15,2013-06-24 02:39:00,
2013-06-23 19:44:00,84.8,37.9,29.60,SW,216,0.0,5.0,19,0.00,,,0.00,0,Wunderground v.1.15,2013-06-24 02:44:00,
2013-06-23 19:49:00,84.5,37.7,29.61,SW,216,0.0,6.0,19,0.00,,,0.00,0,Wunderground v.1.15,2013-06-24 02:49:00,
2013-06-23 19:54:00,84.1,37.4,29.61,SW,216,0.0,1.0,19,0.00,,,0.00,0,Wunderground v.1.15,2013-06-24 02:54:00,
2013-06-23 19:59:00,83.7,37.0,29.61,SW,216,0.0,3.0,19,0.00,,,0.00,0,Wunderground v.1.15,2013-06-24 02:59:00,
2013-06-23 20:04:00,83.3,36.7,29.61,SW,216,0.0,6.0,19,0.00,,,0.00,0,Wunderground v.1.15,2013-06-24 03:04:00,
2013-06-23 20:09:00,83.0,37.8,29.61,SW,216,0.0,6.0,20,0.00,,,0.00,0,Wunderground v.1.15,2013-06-24 03:09:00,
2013-06-23 20:14:00,82.5,37.4,29.61,SW,216,0.0,1.0,20,0.00,,,0.00,0,Wunderground v.1.15,2013-06-24 03:14:00,
2013-06-23 20:19:00,82.1,37.0,29.61,SW,216,0.0,1.0,20,0.00,,,0.00,0,Wunderground v.1.15,2013-06-24 03:19:00,
2013-06-23 20:24:00,81.8,36.8,29.62,SW,216,0.0,2.0,20,0.00,,,0.00,0,Wunderground v.1.15,2013-06-24 03:24:00,
2013-06-23 20:29:00,81.4,36.5,29.62,SW,216,0.0,2.0,20,0.00,,,0.00,0,Wunderground v.1.15,2013-06-24 03:29:00,
2013-06-23 20:34:00,81.2,36.3,29.62,SW,216,0.0,0.0,20,0.00,,,0.00,0,Wunderground v.1.15,2013-06-24 03:34:00,
2013-06-23 20:39:00,80.9,36.1,29.62,SW,216,0.0,0.0,20,0.00,,,0.00,0,Wunderground v.1.15,2013-06-24 03:39:00,
2013-06-23 20:44:00,80.6,37.0,29.63,SW,216,0.0,0.0,21,0.00,,,0.00,0,Wunderground v.1.15,2013-06-24 03:44:00,
2013-06-23 20:49:00,80.2,36.7,29.63,SW,216,0.0,0.0,21,0.00,,,0.00,0,Wunderground v.1.15,2013-06-24 03:49:00,
2013-06-23 20:54:00,79.8,36.4,29.63,SW,216,0.0,3.0,21,0.00,,,0.00,0,Wunderground v.1.15,2013-06-24 03:54:00,
2013-06-23 20:59:00,79.6,36.2,29.63,SW,216,0.0,6.0,21,0.00,,,0.00,0,Wunderground v.1.15,2013-06-24 03:59:00,
2013-06-23 21:01:00,79.5,36.1,29.63,SW,216,0.0,1.0,21,0.00,,,0.00,0,Wunderground v.1.15,2013-06-24 04:01:00,
2013-06-23 21:06:00,79.4,36.0,29.64,SW,216,0.0,1.0,21,0.00,,,0.00,0,Wunderground v.1.15,2013-06-24 04:06:00,
2013-06-23 21:11:00,79.3,36.0,29.64,SW,216,0.0,1.0,21,0.00,,,0.00,0,Wunderground v.1.15,2013-06-24 04:11:00,
2013-06-23 21:16:00,79.3,36.0,29.64,SW,216,0.0,4.0,21,0.00,,,0.00,0,Wunderground v.1.15,2013-06-24 04:16:00,
2013-06-23 21:21:00,79.3,36.0,29.64,SW,216,0.0,0.0,21,0.00,,,0.00,0,Wunderground v.1.15,2013-06-24 04:21:00,
2013-06-23 21:26:00,79.2,35.9,29.64,SW,216,0.0,0.0,21,0.00,,,0.00,0,Wunderground v.1.15,2013-06-24 04:26:00,
2013-06-23 21:31:00,79.0,35.7,29.64,SW,216,0.0,0.0,21,0.00,,,0.00,0,Wunderground v.1.15,2013-06-24 04:31:00,
2013-06-23 21:36:00,78.7,35.5,29.64,SW,216,0.0,0.0,21,0.00,,,0.00,0,Wunderground v.1.15,2013-06-24 04:36:00,
2013-06-23 21:41:00,78.2,35.0,29.64,SW,216,0.0,0.0,21,0.00,,,0.00,0,Wunderground v.1.15,2013-06-24 04:41:00,
2013-06-23 21:46:00,77.8,35.9,29.65,SW,216,0.0,0.0,22,0.00,,,0.00,0,Wunderground v.1.15,2013-06-24 04:46:00,
2013-06-23 21:51:00,77.1,35.3,29.64,SW,216,0.0,0.0,22,0.00,,,0.00,0,Wunderground v.1.15,2013-06-24 04:51:00,
2013-06-23 21:56:00,76.6,36.0,29.65,SW,216,0.0,0.0,23,0.00,,,0.00,0,Wunderground v.1.15,2013-06-24 04:56:00,
2013-06-23 22:01:00,75.9,35.4,29.65,SW,216,0.0,0.0,23,0.00,,,0.00,0,Wunderground v.1.15,2013-06-24 05:01:00,
2013-06-23 22:06:00,75.3,34.9,29.65,SW,216,0.0,0.0,23,0.00,,,0.00,0,Wunderground v.1.15,2013-06-24 05:06:00,
2013-06-23 22:11:00,74.8,35.6,29.65,SW,216,0.0,0.0,24,0.00,,,0.00,0,Wunderground v.1.15,2013-06-24 05:11:00,
2013-06-23 22:16:00,74.3,35.2,29.65,SW,216,0.0,0.0,24,0.00,,,0.00,0,Wunderground v.1.15,2013-06-24 05:16:00,
2013-06-23 22:21:00,73.8,34.7,29.65,SW,216,0.0,0.0,24,0.00,,,0.00,0,Wunderground v.1.15,2013-06-24 05:21:00,
2013-06-23 22:26:00,73.4,35.4,29.66,SW,216,0.0,5.0,25,0.00,,,0.00,0,Wunderground v.1.15,2013-06-24 05:26:00,
2013-06-23 22:31:00,73.5,35.5,29.65,SW,216,0.0,4.0,25,0.00,,,0.00,0,Wunderground v.1.15,2013-06-24 05:31:00,
2013-06-23 22:36:00,74.0,35.9,29.65,SW,216,0.0,5.0,25,0.00,,,0.00,0,Wunderground v.1.15,2013-06-24 05:36:00,
2013-06-23 22:41:00,74.3,36.2,29.65,SW,216,0.0,0.0,25,0.00,,,0.00,0,Wunderground v.1.15,2013-06-24 05:41:00,
2013-06-23 22:47:00,74.7,36.5,29.65,SW,216,0.0,6.0,25,0.00,,,0.00,0,Wunderground v.1.15,2013-06-24 05:47:00,
2013-06-23 22:52:00,74.8,36.6,29.66,SW,216,3.0,4.0,25,0.00,,,0.00,0,Wunderground v.1.15,2013-06-24 05:52:00,
2013-06-23 22:57:00,74.8,36.6,29.66,SSW,212,0.0,6.0,25,0.00,,,0.00,0,Wunderground v.1.15,2013-06-24 05:57:00,
2013-06-23 23:02:00,74.8,36.6,29.66,SSW,201,3.0,7.0,25,0.00,,,0.00,0,Wunderground v.1.15,2013-06-24 06:02:00,
2013-06-23 23:07:00,74.9,36.7,29.66,SSW,201,0.0,7.0,25,0.00,,,0.00,0,Wunderground v.1.15,2013-06-24 06:07:00,
2013-06-23 23:12:00,75.0,37.8,29.66,South,187,4.0,10.0,26,0.00,,,0.00,0,Wunderground v.1.15,2013-06-24 06:12:00,
2013-06-23 23:17:00,75.0,37.8,29.66,South,186,4.0,10.0,26,0.00,,,0.00,0,Wunderground v.1.15,2013-06-24 06:17:00,
2013-06-23 23:23:00,75.0,37.8,29.66,South,191,7.0,7.0,26,0.00,,,0.00,0,Wunderground v.1.15,2013-06-24 06:23:00,
2013-06-23 23:28:00,75.1,37.9,29.65,South,190,3.0,8.0,26,0.00,,,0.00,0,Wunderground v.1.15,2013-06-24 06:28:00,
2013-06-23 23:33:00,74.9,37.7,29.65,South,189,0.0,4.0,26,0.00,,,0.00,0,Wunderground v.1.15,2013-06-24 06:33:00,
2013-06-23 23:38:00,74.7,37.5,29.66,South,190,1.0,6.0,26,0.00,,,0.00,0,Wunderground v.1.15,2013-06-24 06:38:00,
2013-06-23 23:43:00,74.4,37.3,29.66,South,190,0.0,6.0,26,0.00,,,0.00,0,Wunderground v.1.15,2013-06-24 06:43:00,
2013-06-23 23:48:00,74.3,37.2,29.66,South,189,0.0,6.0,26,0.00,,,0.00,0,Wunderground v.1.15,2013-06-24 06:48:00,
2013-06-23 23:53:00,74.4,37.3,29.66,South,189,6.0,6.0,26,0.00,,,0.00,0,Wunderground v.1.15,2013-06-24 06:53:00,
2013-06-23 23:58:00,74.7,37.5,29.65,South,191,5.0,7.0,26,0.00,,,0.00,0,Wunderground v.1.15,2013-06-24 06:58:00,